Weather in Klimovka

Russia / Samara Oblast     53°29′18″N   49°00′37″E
temp.,
°C
wind,
m/s
gust,
m/s
humid.,
%
clouds,
%
prec.,
mm/h
press.,
hPa
HPBL,
m
28 june, tue
tue2801:00+18nw33915 0.0 101343
04:00+16n599714 0.0 1013259
07:00+14nne699135 0.0 1015472
10:00+15nne68660 0.0 1016906
13:00+17nne67524 0.0 10171450
16:00+17n68503 0.0 10171734
19:00+16nne58665 0.0 10181238
22:00+11nne35735 0.0 101989
29 june, wed
wed2901:00+10nnw33755 0.0 101955
04:00+9nnw34841 0.0 101970
07:00+12n47755 0.0 1020475
10:00+14n686415 0.0 10191239
13:00+16nne685667 0.0 10191577
16:00+17n68525 0.0 10191555
19:00+17nnw59615 0.0 1017606
22:00+13wnw35714 0.0 101772
30 june, thu
thu3001:00+11wnw34760 0.0 101650
04:00+10wnw3677100 0.0 1015107
07:00+13wnw4972100 0.0 1014254
10:00+18nw6855100 0.0 1013851
13:00+20nnw794697 0.0 10122287
16:00+20nnw794791 0.0 10111943
19:00+16n59662 0.0 1012934
22:00+13n4875100 0.2 1013292
1 july, fri
fri101:00+11n51073100 0.1 1014383
04:00+10n610740 0.1 1015406
07:00+12n711730 0.0 1016916
10:00+14n911605 0.0 10161267
13:00+16n81058100 0.0 10161653
16:00+17n7105776 0.0 10171657
19:00+17n376574 0.0 1017812
22:00+13wnw33715 0.0 101737
2 july, sat
sat201:00+12wnw34745 0.0 101669
04:00+11wnw34765 0.0 101660
07:00+14wnw25695 0.0 1016181
10:00+20nnw465573 0.0 1016677
13:00+19nne4562100 0.0 1015412
16:00+18n117363 0.0 101539
19:00+20sse236994 0.0 1013145
22:00+16wsw2388100 0.4 101355